Starlink 5148

operational
NORAD ID: 53978 Int'l Des: 2022-125 Owner: SPXS Country: US Constellation: starlink
LEOCIRCULAR

About Starlink 5148

Description loading...

Live Position

Loading 3D Globe...

Upcoming Passes

Altitude History

Altitude vs Time

uPlot chart will show altitude changes over time

Two-Line Element Set

1 53978U 22125Q 25303.13158864 -.00000614 00000-0 -20480-4 0 9994
2 53978 53.2214 85.1347 0001394 84.9147 275.2004 15.08831269169682
Epoch: Oct 30, 2025 • Age: 14 hours

Current Status

Altitude 542.1 km
Velocity 7.59 km/s
Sub-Earth Point -7.67°S, 136.08°E
Launch Date Oct 5, 2022
Age 3 years
Type internet

Technical Details

Classification Payload
Mass 305.00 kg
Dry Mass 290.00 kg
Total Mass 305.00 kg
Length 0.20 m
Diameter 2.80 m
Span 9.00 m
Shape Box + pan
Manufacturer SPXS
Bus Type Starlink
Phase Status In Orbit
Owner/State SPXS/US

Large Constellations

Loading constellations...